timestamp,wind_dir_avg,wind_spd_avg,wind_spd_max_dir,wind_spd_gust,battery_voltage,lat,long
2023-10-09 00:04:01+00:00,129.0,4.71,125.0,5.51,12.41,47.59359,-54.27349
2023-10-09 00:14:01+00:00,117.0,4.4,123.0,6.18,12.41,47.59359,-54.27349
2023-10-09 00:24:01+00:00,115.0,4.13,112.0,5.47,12.41,47.59359,-54.27349
2023-10-09 00:34:01+00:00,98.0,3.05,120.0,5.17,12.41,47.59359,-54.27349
2023-10-09 00:44:01+00:00,107.0,3.02,117.0,4.8,12.41,47.59359,-54.27349
2023-10-09 00:54:01+00:00,102.0,3.45,122.0,6.07,12.41,47.59359,-54.27349
2023-10-09 01:04:01+00:00,100.0,2.71,88.0,4.77,12.41,47.59359,-54.27349
2023-10-09 01:14:01+00:00,118.0,4.45,130.0,6.63,12.41,47.59359,-54.27349
2023-10-09 01:24:01+00:00,118.0,4.94,110.0,7.56,12.41,47.59359,-54.27349
2023-10-09 01:34:01+00:00,92.0,4.23,101.0,6.51,12.41,47.59359,-54.27349
2023-10-09 01:44:01+00:00,97.0,3.41,111.0,6.16,12.41,47.59359,-54.27349
2023-10-09 01:54:01+00:00,115.0,4.08,133.0,5.47,12.41,47.59359,-54.27349
2023-10-09 02:04:01+00:00,96.0,3.21,99.0,6.27,12.41,47.59359,-54.27349
2023-10-09 02:14:00+00:00,124.0,5.46,126.0,6.5,12.41,47.59359,-54.27349
2023-10-09 02:24:00+00:00,112.0,2.85,135.0,5.08,12.41,47.59359,-54.27349
2023-10-09 02:34:00+00:00,118.0,3.75,127.0,4.77,12.41,47.59359,-54.27349
2023-10-09 02:44:00+00:00,128.0,5.64,135.0,6.97,12.41,47.59359,-54.27349
2023-10-09 02:54:00+00:00,111.0,3.23,132.0,4.52,12.41,47.59359,-54.27349
2023-10-09 03:04:00+00:00,125.0,4.8,130.0,5.83,12.41,47.59359,-54.27349
2023-10-09 03:14:01+00:00,100.0,2.65,80.0,5.46,12.41,47.59359,-54.27349
2023-10-09 03:24:01+00:00,99.0,3.89,99.0,5.92,12.41,47.59359,-54.27349
2023-10-09 03:34:01+00:00,117.0,4.53,132.0,6.24,12.41,47.59359,-54.27349
2023-10-09 03:44:01+00:00,102.0,3.78,126.0,5.4,12.41,47.59359,-54.27349
2023-10-09 03:54:01+00:00,131.0,6.02,130.0,7.32,12.41,47.59359,-54.27349
2023-10-09 04:04:01+00:00,107.0,4.45,112.0,6.8,12.41,47.59359,-54.27349
2023-10-09 04:14:00+00:00,127.0,5.87,119.0,7.36,12.33,47.59359,-54.27349
2023-10-09 04:24:00+00:00,104.0,3.79,99.0,6.78,12.33,47.59359,-54.27349
2023-10-09 04:34:00+00:00,106.0,3.72,101.0,6.6,12.33,47.59359,-54.27349
2023-10-09 04:44:00+00:00,103.0,3.38,130.0,5.51,12.33,47.59359,-54.27349
2023-10-09 04:54:00+00:00,98.0,3.81,94.0,6.1,12.33,47.59359,-54.27349
2023-10-09 05:04:00+00:00,120.0,4.84,117.0,7.87,12.33,47.59359,-54.27349
2023-10-09 05:14:01+00:00,115.0,4.51,130.0,6.81,12.33,47.59359,-54.27349
2023-10-09 05:24:01+00:00,127.0,5.46,119.0,6.6,12.33,47.59359,-54.27349
2023-10-09 05:34:01+00:00,131.0,5.45,130.0,6.37,12.33,47.59359,-54.27349
2023-10-09 05:44:01+00:00,115.0,5.59,119.0,9.08,12.33,47.59359,-54.27349
2023-10-09 05:54:01+00:00,126.0,4.53,141.0,5.92,12.33,47.59359,-54.27349
2023-10-09 06:04:01+00:00,136.0,5.63,136.0,6.77,12.33,47.59359,-54.27349
2023-10-09 06:14:00+00:00,137.0,5.0,141.0,6.09,12.33,47.59359,-54.27349
2023-10-09 06:24:00+00:00,128.0,3.96,127.0,4.52,12.33,47.59359,-54.27349
2023-10-09 06:34:00+00:00,128.0,3.28,116.0,4.92,12.33,47.59359,-54.27349
2023-10-09 06:44:00+00:00,84.0,2.13,61.0,3.3,12.33,47.59359,-54.27349
2023-10-09 06:54:00+00:00,122.0,3.1,118.0,3.73,12.33,47.59359,-54.27349
2023-10-09 07:04:00+00:00,133.0,3.4,128.0,4.11,12.33,47.59359,-54.27349
2023-10-09 07:14:00+00:00,130.0,2.74,124.0,3.59,12.33,47.59359,-54.27349
2023-10-09 07:24:00+00:00,86.0,2.05,80.0,3.03,12.33,47.59359,-54.27349
2023-10-09 07:34:00+00:00,79.0,2.02,87.0,3.24,12.33,47.59359,-54.27349
2023-10-09 07:44:00+00:00,81.0,2.73,73.0,3.24,12.33,47.59359,-54.27349
2023-10-09 07:54:00+00:00,92.0,1.68,101.0,2.24,12.33,47.59359,-54.27349
2023-10-09 08:04:00+00:00,90.0,2.11,91.0,2.94,12.33,47.59359,-54.27349
2023-10-09 08:14:01+00:00,90.0,2.29,79.0,2.74,12.33,47.59359,-54.27349
2023-10-09 08:24:01+00:00,91.0,1.83,91.0,2.87,12.33,47.59359,-54.27349
2023-10-09 08:34:01+00:00,98.0,1.61,109.0,2.12,12.33,47.59359,-54.27349
2023-10-09 08:44:01+00:00,128.0,2.15,128.0,2.41,12.33,47.59359,-54.27349
2023-10-09 08:54:01+00:00,116.0,2.22,113.0,3.29,12.33,47.59359,-54.27349
2023-10-09 09:04:01+00:00,91.0,1.5,88.0,1.95,12.33,47.59359,-54.27349
2023-10-09 09:14:00+00:00,85.0,3.22,79.0,4.15,12.17,47.59359,-54.27349
2023-10-09 09:24:00+00:00,80.0,2.53,74.0,3.81,12.17,47.59359,-54.27349
2023-10-09 09:34:00+00:00,103.0,2.95,98.0,3.75,12.17,47.59359,-54.27349
2023-10-09 09:44:00+00:00,92.0,2.27,114.0,3.08,12.17,47.59359,-54.27349
2023-10-09 09:54:00+00:00,87.0,2.99,64.0,4.55,12.17,47.59359,-54.27349
2023-10-09 10:04:00+00:00,122.0,3.62,132.0,4.24,12.17,47.59359,-54.27349
2023-10-09 10:14:01+00:00,111.0,2.36,126.0,3.61,12.25,47.59359,-54.27349
2023-10-09 10:24:01+00:00,119.0,3.08,124.0,4.35,12.25,47.59359,-54.27349
2023-10-09 10:34:01+00:00,117.0,2.61,127.0,3.89,12.25,47.59359,-54.27349
2023-10-09 10:44:01+00:00,102.0,2.28,122.0,4.02,12.25,47.59359,-54.27349
2023-10-09 10:54:01+00:00,90.0,2.54,140.0,4.1,12.25,47.59359,-54.27349
2023-10-09 11:04:01+00:00,91.0,2.33,125.0,4.12,12.25,47.59359,-54.27349
2023-10-09 11:14:00+00:00,98.0,3.11,116.0,4.74,14.16,47.59359,-54.27349
2023-10-09 11:24:00+00:00,86.0,3.77,73.0,5.39,14.16,47.59359,-54.27349
2023-10-09 11:34:00+00:00,94.0,3.15,132.0,4.9,14.16,47.59359,-54.27349
2023-10-09 11:44:00+00:00,95.0,4.05,98.0,5.97,14.16,47.59359,-54.27349
2023-10-09 11:54:00+00:00,82.0,3.65,85.0,4.94,14.16,47.59359,-54.27349
2023-10-09 12:04:00+00:00,88.0,3.58,129.0,4.77,14.16,47.59359,-54.27349
2023-10-09 12:14:01+00:00,71.0,4.87,68.0,6.53,14.32,47.59359,-54.27349
2023-10-09 12:24:01+00:00,83.0,4.11,53.0,5.39,14.32,47.59359,-54.27349
2023-10-09 12:34:01+00:00,78.0,5.79,91.0,7.87,14.32,47.59359,-54.27349
2023-10-09 12:44:01+00:00,72.0,5.1,58.0,6.93,14.32,47.59359,-54.27349
2023-10-09 12:54:01+00:00,99.0,4.11,115.0,6.19,14.32,47.59359,-54.27349
2023-10-09 13:04:01+00:00,93.0,3.57,124.0,5.36,14.32,47.59359,-54.27349
2023-10-09 13:14:01+00:00,94.0,4.36,55.0,7.37,13.68,47.59359,-54.27349
2023-10-09 13:24:01+00:00,85.0,3.85,62.0,5.31,13.68,47.59359,-54.27349
2023-10-09 13:34:01+00:00,92.0,3.61,100.0,6.23,13.68,47.59359,-54.27349
2023-10-09 13:44:01+00:00,113.0,4.22,132.0,7.43,13.68,47.59359,-54.27349
2023-10-09 13:54:01+00:00,101.0,3.18,122.0,4.77,13.68,47.59359,-54.27349
2023-10-09 14:04:01+00:00,109.0,3.51,129.0,5.54,13.68,47.59359,-54.27349
2023-10-09 14:14:00+00:00,119.0,4.55,123.0,5.65,13.84,47.59359,-54.27349
2023-10-09 14:24:00+00:00,75.0,3.27,68.0,4.42,13.84,47.59359,-54.27349
2023-10-09 14:34:00+00:00,84.0,3.08,61.0,4.54,13.84,47.59359,-54.27349
2023-10-09 14:44:00+00:00,77.0,3.44,82.0,4.45,13.84,47.59359,-54.27349
2023-10-09 14:54:00+00:00,91.0,3.01,82.0,4.11,13.84,47.59359,-54.27349
2023-10-09 15:04:00+00:00,97.0,2.44,82.0,3.67,13.84,47.59359,-54.27349
2023-10-09 15:14:00+00:00,76.0,2.74,65.0,3.83,13.68,47.59359,-54.27349
2023-10-09 15:24:00+00:00,74.0,3.35,73.0,4.57,13.68,47.59359,-54.27349
2023-10-09 15:34:00+00:00,67.0,4.0,60.0,5.15,13.68,47.59359,-54.27349
2023-10-09 15:44:00+00:00,75.0,2.83,74.0,4.1,13.68,47.59359,-54.27349
2023-10-09 15:54:00+00:00,68.0,3.92,56.0,5.9,13.68,47.59359,-54.27349
2023-10-09 16:04:00+00:00,77.0,3.23,54.0,4.35,13.68,47.59359,-54.27349
2023-10-09 16:14:00+00:00,68.0,4.6,66.0,5.05,13.68,47.59359,-54.27349
2023-10-09 16:24:00+00:00,48.0,4.9,55.0,5.51,13.68,47.59359,-54.27349
2023-10-09 16:34:00+00:00,59.0,4.33,54.0,4.87,13.68,47.59359,-54.27349
2023-10-09 16:44:00+00:00,54.0,4.99,54.0,5.57,13.68,47.59359,-54.27349
2023-10-09 16:54:00+00:00,49.0,4.26,50.0,4.86,13.68,47.59359,-54.27349
2023-10-09 17:04:00+00:00,52.0,4.43,45.0,4.78,13.68,47.59359,-54.27349
2023-10-09 17:14:00+00:00,82.0,2.78,109.0,3.88,13.68,47.59359,-54.27349
2023-10-09 17:24:00+00:00,73.0,3.59,63.0,4.6,13.68,47.59359,-54.27349
2023-10-09 17:34:00+00:00,64.0,3.95,72.0,4.34,13.68,47.59359,-54.27349
2023-10-09 17:44:00+00:00,68.0,4.85,69.0,5.27,13.68,47.59359,-54.27349
2023-10-09 17:54:00+00:00,68.0,5.08,68.0,5.36,13.68,47.59359,-54.27349
2023-10-09 18:04:00+00:00,62.0,4.19,59.0,4.88,13.68,47.59359,-54.27349
2023-10-09 18:14:00+00:00,69.0,4.48,71.0,5.12,13.76,47.59359,-54.27349
2023-10-09 18:24:00+00:00,52.0,5.79,51.0,6.4,13.76,47.59359,-54.27349
2023-10-09 18:34:00+00:00,52.0,6.05,52.0,6.58,13.76,47.59359,-54.27349
2023-10-09 18:44:00+00:00,53.0,5.61,55.0,6.27,13.76,47.59359,-54.27349
2023-10-09 18:54:00+00:00,54.0,5.26,53.0,5.61,13.76,47.59359,-54.27349
2023-10-09 19:04:00+00:00,60.0,5.01,59.0,5.68,13.76,47.59359,-54.27349
2023-10-09 19:14:01+00:00,58.0,4.64,53.0,5.13,13.37,47.59359,-54.27349
2023-10-09 19:24:01+00:00,61.0,4.36,65.0,5.03,13.37,47.59359,-54.27349
2023-10-09 19:34:01+00:00,57.0,4.78,55.0,5.22,13.37,47.59359,-54.27349
2023-10-09 19:44:01+00:00,61.0,4.36,49.0,5.11,13.37,47.59359,-54.27349
2023-10-09 19:54:01+00:00,65.0,4.87,64.0,5.64,13.37,47.59359,-54.27349
2023-10-09 20:04:01+00:00,69.0,5.81,65.0,6.53,13.37,47.59359,-54.27349
2023-10-09 20:14:00+00:00,71.0,4.43,69.0,5.33,13.21,47.59359,-54.27349
2023-10-09 20:24:00+00:00,73.0,4.28,67.0,5.23,13.21,47.59359,-54.27349
2023-10-09 20:34:00+00:00,71.0,4.19,70.0,5.35,13.21,47.59359,-54.27349
2023-10-09 20:44:00+00:00,68.0,4.82,70.0,5.42,13.21,47.59359,-54.27349
2023-10-09 20:54:00+00:00,73.0,4.3,73.0,5.28,13.21,47.59359,-54.27349
2023-10-09 21:04:00+00:00,75.0,4.15,72.0,4.92,13.21,47.59359,-54.27349
2023-10-09 21:14:01+00:00,68.0,4.64,67.0,5.14,12.73,47.59359,-54.27349
2023-10-09 21:24:01+00:00,67.0,5.29,70.0,6.1,12.73,47.59359,-54.27349
2023-10-09 21:34:01+00:00,69.0,5.13,71.0,5.56,12.73,47.59359,-54.27349
2023-10-09 21:44:01+00:00,68.0,4.74,62.0,5.24,12.73,47.59359,-54.27349
2023-10-09 21:54:01+00:00,71.0,5.32,69.0,6.16,12.73,47.59359,-54.27349
2023-10-09 22:04:01+00:00,76.0,3.68,63.0,5.04,12.73,47.59359,-54.27349
2023-10-09 22:14:01+00:00,81.0,3.19,72.0,4.26,12.49,47.59359,-54.27349
2023-10-09 22:24:01+00:00,83.0,3.5,63.0,4.41,12.49,47.59359,-54.27349
2023-10-09 22:34:01+00:00,85.0,3.92,82.0,5.79,12.49,47.59359,-54.27349
2023-10-09 22:44:01+00:00,82.0,3.87,88.0,5.4,12.49,47.59359,-54.27349
2023-10-09 22:54:01+00:00,87.0,3.45,120.0,4.96,12.49,47.59359,-54.27349
2023-10-09 23:04:01+00:00,93.0,3.41,109.0,5.21,12.49,47.59359,-54.27349
2023-10-09 23:14:00+00:00,95.0,3.51,117.0,5.94,12.49,47.59359,-54.27349
2023-10-09 23:24:00+00:00,93.0,3.11,72.0,4.65,12.49,47.59359,-54.27349
2023-10-09 23:34:00+00:00,101.0,3.89,112.0,5.2,12.49,47.59359,-54.27349
2023-10-09 23:44:00+00:00,98.0,4.12,109.0,6.32,12.49,47.59359,-54.27349
2023-10-09 23:54:00+00:00,97.0,3.27,116.0,5.35,12.49,47.59359,-54.27349
